[[{"header":{"parameterUnit":"m.s-1","parameterCategory":1,"la1":30.2992,"la2":30.254,"lo1":-89.0895,"lo2":-89.0443,"dy":0.0025,"dx":0.0025,"nx":19,"ny":19,"refTime":"2026-05-22T09:00:00:Z","depth":0,"parameterNumber":2,"parameterNumberName":"U-component_of_WINDS"},"data":[0,0,0,-1.1535,-1.1537,-1.1645,-1.1646,-1.1777,-1.1778,0,0,0,0,0,0,0,0,0,0,0,-1.1496,-1.1496,-1.1534,-1.1537,-1.1645,-1.1646,-1.1776,-1.1778,0,0,0,0,0,0,0,0,0,0,0,-1.1495,-1.1496,-1.1497,-1.1537,-1.1645,-1.1646,-1.1776,-1.1698,0,0,0,0,0,0,0,0,0,0,-1.1594,-1.1551,-1.1496,-1.1497,-1.1538,-1.1645,-1.1646,-1.1694,-1.1703,-1.1723,0,-1.1739,0,-1.176,-1.1786,-1.1786,0,0,0,-1.1543,-1.1544,-1.1579,-1.1497,-1.1539,-1.1645,-1.1598,-1.1699,-1.1708,-1.1735,-1.1741,-1.1746,-1.1762,-1.1787,-1.1787,-1.1885,-1.1885,0,0,-1.1537,-1.1512,-1.1572,-1.1585,-1.1565,-1.1594,-1.1601,-1.1705,-1.171,-1.1741,-1.1749,-1.1764,-1.1787,-1.1788,-1.1885,-1.1885,0,0,0,-1.1516,-1.1508,-1.1541,-1.1579,-1.1599,-1.1597,-1.1605,-1.1706,-1.1718,-1.175,-1.1766,-1.1788,-1.179,-1.1885,-1.1885,-1.187,0,0,0,-1.1512,-1.1496,-1.1538,-1.1524,-1.1597,-1.1653,-1.1604,-1.1711,-1.1724,-1.1765,-1.1788,-1.1791,-1.1884,-1.1885,-1.187,-1.1868,0,0,0,-1.1491,-1.1493,-1.1506,-1.1522,-1.1568,-1.1652,-1.1671,-1.1714,-1.1733,-1.1786,-1.1791,-1.1884,-1.1885,-1.187,-1.1868,-1.1886,0,0,0,-1.1462,-1.1493,-1.1506,-1.1546,-1.1567,-1.1642,-1.1671,-1.1728,-1.1772,-1.1789,-1.1884,-1.1885,-1.187,-1.1868,-1.1886,-1.1897,-1.19,0,0,-1.1487,-1.1495,-1.1521,-1.1535,-1.1601,-1.1627,-1.1692,-1.1756,-1.1785,-1.185,-1.1853,-1.187,-1.1868,-1.1886,-1.192,-1.1922,0,0,0,-1.1521,-1.1539,-1.1562,-1.1601,-1.165,-1.1692,-1.1748,-1.1773,-1.1829,-1.1813,-1.1883,-1.1882,-1.1894,-1.19,-1.1902,-1.1914,-1.1887,-1.1887,-1.1887,-1.1522,-1.1555,-1.16,-1.1646,-1.1685,-1.1742,-1.1777,-1.182,-1.1843,-1.1859,-1.1879,-1.1895,-1.1902,-1.1903,-1.1915,-1.1887,-1.1887,-1.1887,-1.1887,-1.1563,-1.1594,-1.1623,-1.1676,-1.1712,-1.1759,-1.1816,-1.1831,-1.188,-1.1883,-1.1895,-1.1895,-1.1904,-1.1916,-1.1886,-1.1886,-1.1887,-1.1887,-1.1887,-1.1568,-1.1588,-1.1615,-1.1676,-1.172,-1.1766,-1.1812,-1.1843,-1.1873,-1.1885,-1.1909,-1.191,-1.1914,-1.1894,-1.1894,-1.1894,-1.1894,-1.1894,-1.1894,-1.1562,-1.1593,-1.1627,-1.168,-1.171,-1.1753,-1.1811,-1.1842,-1.1884,-1.1903,-1.1904,-1.1926,-1.1898,-1.189,-1.1895,-1.1895,-1.1895,-1.1895,-1.1895,-1.1592,-1.159,-1.1641,-1.1671,-1.1736,-1.1778,-1.1816,-1.1876,-1.1906,-1.1928,-1.1948,-1.1921,-1.1932,-1.1931,-1.1925,-1.194,-1.194,-1.194,-1.194,-1.1596,-1.1604,-1.1664,-1.1709,-1.1756,-1.1796,-1.1856,-1.1901,-1.1949,-1.197,-1.1972,-1.1967,-1.1965,-1.1977,-1.1975,-1.197,-1.1995,-1.1995,-1.1995,-1.1617,-1.163,-1.1674,-1.1718,-1.1771,-1.1817,-1.1874,-1.1926,-1.198,-1.1998,-1.1987,-1.1985,-1.1976,-1.1972,-1.199,-1.1987,-1.1978,0,0]},{"header":{"parameterUnit":"m.s-1","parameterCategory":1,"la1":30.2992,"la2":30.254,"lo1":-89.0895,"lo2":-89.0443,"dy":0.0025,"dx":0.0025,"nx":19,"ny":19,"refTime":"2026-05-22T09:00:00:Z","depth":0,"parameterNumber":3,"parameterNumberName":"V-component_of_WINDS"},"data":[0,0,0,3.7191,3.7192,3.7252,3.7252,3.734,3.7341,0,0,0,0,0,0,0,0,0,0,0,3.7182,3.7183,3.7191,3.7192,3.7252,3.7252,3.734,3.7341,0,0,0,0,0,0,0,0,0,0,0,3.7181,3.7182,3.7184,3.7193,3.7252,3.7252,3.734,3.729,0,0,0,0,0,0,0,0,0,0,3.723,3.7231,3.7182,3.7184,3.7193,3.7252,3.7252,3.7288,3.7293,3.7319,0,3.7345,0,3.7345,3.7348,3.7348,0,0,0,3.7186,3.7226,3.7234,3.7184,3.7194,3.7252,3.7223,3.7291,3.7297,3.7326,3.7346,3.7349,3.7346,3.7349,3.7349,3.752,3.7521,0,0,3.7182,3.7197,3.723,3.7239,3.7232,3.7221,3.7225,3.7294,3.7316,3.7346,3.7351,3.7348,3.7349,3.735,3.7519,3.7521,0,0,0,3.7178,3.7195,3.7201,3.7236,3.7246,3.7223,3.7228,3.7313,3.7314,3.7352,3.7349,3.735,3.7351,3.7518,3.752,3.7589,0,0,0,3.7175,3.7192,3.72,3.721,3.7245,3.7281,3.7245,3.7309,3.7317,3.7348,3.735,3.7352,3.7517,3.7519,3.7585,3.762,0,0,0,3.7175,3.7192,3.7203,3.721,3.7236,3.7279,3.7284,3.731,3.7315,3.7348,3.7352,3.7516,3.7519,3.7581,3.7613,3.7669,0,0,0,3.7178,3.7264,3.7205,3.7299,3.7236,3.7322,3.7283,3.7346,3.7383,3.735,3.7517,3.752,3.7579,3.7609,3.7665,3.772,3.7744,0,0,3.7295,3.7279,3.7333,3.7282,3.7382,3.7312,3.7421,3.7441,3.743,3.7491,3.7495,3.7586,3.7613,3.7668,3.7873,3.7892,0,0,0,3.7375,3.7414,3.7437,3.7473,3.7491,3.7508,3.751,3.7517,3.7567,3.7465,3.7621,3.7636,3.7668,3.7694,3.771,3.7737,3.7532,3.7532,3.7531,3.756,3.7542,3.7631,3.762,3.7656,3.7656,3.7682,3.7692,3.7663,3.77,3.7718,3.7844,3.7875,3.7887,3.7915,3.7745,3.7745,3.7746,3.7746,3.7729,3.7782,3.7741,3.7813,3.7793,3.7852,3.7855,3.7833,3.7885,3.7829,3.7857,3.7798,3.7909,3.7932,3.7751,3.775,3.7749,3.7749,3.7749,3.7849,3.7871,3.7878,3.7928,3.7969,3.7954,3.8006,3.7985,3.7966,3.7993,3.801,3.8009,3.8005,3.8003,3.8003,3.8004,3.8004,3.8004,3.8005,3.7971,3.7977,3.8024,3.8049,3.8069,3.8093,3.8093,3.8112,3.8127,3.8108,3.8108,3.8076,3.7923,3.7885,3.8011,3.801,3.8009,3.8009,3.8008,3.815,3.8106,3.8178,3.8199,3.8226,3.8267,3.824,3.828,3.8292,3.8318,3.828,3.8169,3.8151,3.8138,3.8107,3.8283,3.8283,3.8283,3.8283,3.8252,3.8241,3.8309,3.8343,3.8373,3.8356,3.8437,3.8437,3.8431,3.8437,3.8409,3.8365,3.8352,3.8342,3.8324,3.8294,3.8515,3.8515,3.8515,3.8361,3.8351,3.8425,3.8419,3.8438,3.8455,3.853,3.857,3.8553,3.8524,3.8442,3.8432,3.8361,3.8339,3.831,3.8283,3.8228,0,0]}]]